Total_Precipitation_Accumulation
0.01 0.05 0.11 0.28 0.83 1.08 0.84 0.50 0.41 0.33 0.33 0.28 0.29 0.29 0.34 0.48 0.70 1.02 0.48 0.14 0.05 0.02 0.04 0.13 0.22 0.19 0.15 0.14 0.15 0.18 0.18 0.18 0.17 0.17 0.17 0.17 0.16 0.13 0.11 0.14 0.16 0.20 0.22 0.23 0.30 0.30 0.26 0.30 0.34
0.03 0.06 0.14 0.43 0.84 0.84 0.60 0.44 0.36 0.26 0.28 0.33 0.46 0.44 0.36 0.45 0.44 0.37 0.26 0.17 0.07 0.04 0.04 0.05 0.13 0.16 0.15 0.14 0.15 0.17 0.16 0.15 0.14 0.14 0.14 0.14 0.14 0.12 0.11 0.13 0.17 0.21 0.21 0.23 0.31 0.28 0.25 0.26 0.32
0.05 0.08 0.18 0.48 0.58 0.43 0.34 0.23 0.23 0.28 0.36 0.45 0.51 0.52 0.53 0.51 0.40 0.35 0.27 0.17 0.13 0.08 0.06 0.07 0.11 0.13 0.15 0.16 0.15 0.16 0.15 0.14 0.13 0.13 0.13 0.13 0.13 0.13 0.13 0.15 0.18 0.23 0.27 0.27 0.26 0.25 0.27 0.28 0.31
0.05 0.12 0.25 0.36 0.25 0.13 0.12 0.14 0.22 0.34 0.53 0.76 0.76 0.68 0.61 0.42 0.33 0.30 0.32 0.24 0.19 0.12 0.07 0.10 0.14 0.12 0.13 0.14 0.15 0.16 0.14 0.13 0.14 0.14 0.14 0.14 0.14 0.16 0.16 0.15 0.18 0.25 0.31 0.29 0.29 0.30 0.28 0.28 0.29
0.04 0.17 0.32 0.29 0.13 0.09 0.10 0.14 0.26 0.39 0.58 0.77 0.82 0.83 0.78 0.50 0.35 0.34 0.31 0.30 0.24 0.17 0.10 0.11 0.18 0.17 0.16 0.16 0.18 0.17 0.15 0.14 0.14 0.14 0.16 0.18 0.18 0.19 0.19 0.19 0.22 0.25 0.28 0.29 0.30 0.31 0.30 0.30 0.30
0.04 0.15 0.21 0.18 0.10 0.07 0.11 0.16 0.26 0.39 0.58 0.77 1.01 1.07 0.92 0.66 0.60 0.53 0.41 0.49 0.37 0.27 0.17 0.19 0.26 0.27 0.23 0.22 0.23 0.23 0.19 0.17 0.18 0.18 0.20 0.21 0.20 0.22 0.23 0.25 0.27 0.27 0.29 0.31 0.29 0.31 0.30 0.30 0.36
0.01 0.07 0.11 0.11 0.08 0.07 0.10 0.15 0.26 0.42 0.58 0.85 1.13 1.23 0.99 0.77 0.71 0.67 0.61 0.68 0.69 0.52 0.39 0.34 0.32 0.31 0.28 0.31 0.32 0.29 0.26 0.23 0.24 0.24 0.23 0.23 0.22 0.24 0.26 0.31 0.32 0.33 0.33 0.32 0.32 0.32 0.34 0.38 0.43
0.01 0.03 0.06 0.06 0.05 0.07 0.12 0.16 0.29 0.50 0.69 0.92 1.12 1.25 1.26 0.90 0.77 0.86 1.02 1.16 1.25 1.10 0.86 0.63 0.43 0.44 0.37 0.35 0.36 0.35 0.31 0.29 0.29 0.28 0.26 0.28 0.33 0.38 0.43 0.45 0.42 0.43 0.46 0.47 0.50 0.49 0.51 0.58 0.63
0.01 0.03 0.05 0.03 0.04 0.11 0.14 0.18 0.25 0.36 0.57 0.82 1.01 1.07 0.95 0.88 1.03 1.23 1.56 1.58 1.40 1.41 1.23 1.10 0.86 0.62 0.59 0.51 0.44 0.52 0.50 0.49 0.51 0.56 0.53 0.55 0.69 0.77 0.84 0.74 0.71 0.74 0.81 0.85 0.92 0.94 0.95 0.94 0.84
0.00 0.02 0.03 0.01 0.02 0.05 0.11 0.16 0.25 0.35 0.76 1.37 1.38 1.03 0.80 0.97 1.22 1.39 1.68 1.91 1.50 1.45 1.28 1.28 1.21 0.90 0.77 0.69 0.86 1.05 0.97 1.00 0.99 1.13 1.02 1.16 1.24 1.08 0.80 0.89 1.03 1.14 1.38 1.47 1.55 1.62 1.56 1.41 1.23
0.00 0.00 0.01 0.01 0.01 0.01 0.04 0.11 0.20 0.42 0.87 1.59 1.77 1.31 1.11 1.21 1.55 1.56 1.78 1.96 1.87 1.69 1.56 1.27 1.37 1.18 1.10 1.15 1.21 1.32 1.39 1.39 1.36 1.41 1.42 1.59 1.50 1.25 1.11 1.31 1.60 1.76 1.90 2.04 2.20 2.21 1.88 1.91 2.03
0.00 0.00 0.00 0.01 0.01 0.01 0.09 0.15 0.25 0.33 0.75 1.10 1.09 0.98 1.15 1.36 1.66 1.85 1.88 2.08 2.12 1.98 1.87 1.70 1.69 1.64 1.58 1.53 1.41 1.30 1.19 1.21 1.31 1.44 1.50 1.65 1.68 1.69 1.64 1.72 1.81 1.98 2.26 2.55 2.56 2.61 2.50 2.62 2.54
0.00 0.00 0.00 0.02 0.03 0.04 0.10 0.13 0.24 0.39 0.52 0.64 0.61 0.80 1.23 1.52 1.88 2.19 2.49 2.68 2.72 2.65 2.49 2.45 2.49 2.23 1.99 1.82 1.48 1.22 1.10 1.01 1.08 1.20 1.27 1.33 1.59 1.75 1.76 1.61 1.62 1.67 1.91 2.29 2.65 2.70 2.92 3.02 2.78
0.00 0.00 0.01 0.03 0.04 0.05 0.07 0.10 0.26 0.47 0.49 0.61 0.76 0.99 1.37 1.81 2.19 2.42 3.14 3.49 3.69 3.62 3.41 3.20 3.22 2.69 2.34 2.03 1.61 1.36 1.15 1.12 1.04 0.97 1.04 1.22 1.40 1.57 1.53 1.51 1.61 1.69 1.69 1.84 2.25 2.49 2.75 2.73 2.50
0.00 0.03 0.06 0.07 0.05 0.06 0.06 0.18 0.40 0.53 0.72 0.77 0.94 1.17 1.50 2.06 2.51 2.95 3.48 4.19 4.59 4.73 4.31 3.67 3.40 3.04 2.69 2.37 1.89 1.49 1.28 1.08 1.04 0.96 0.95 1.04 1.14 1.29 1.30 1.35 1.34 1.40 1.42 1.44 1.60 1.83 2.02 2.03 1.96
0.01 0.08 0.18 0.11 0.07 0.08 0.11 0.42 0.65 0.56 0.85 1.19 1.14 1.41 1.81 2.32 2.74 3.37 4.07 4.89 5.39 5.54 4.92 4.12 3.43 3.42 3.19 2.81 2.17 1.66 1.34 1.13 0.97 0.89 0.80 0.79 0.82 0.83 0.87 0.90 0.90 0.90 0.87 0.95 1.13 1.24 1.38 1.58 1.73
0.03 0.07 0.15 0.18 0.12 0.10 0.19 0.59 0.76 0.57 0.72 1.03 1.27 1.51 1.93 2.29 2.58 3.18 3.83 4.65 5.25 5.76 5.51 4.79 4.51 4.27 3.59 2.78 2.12 1.66 1.34 1.17 0.99 0.89 0.76 0.72 0.66 0.64 0.69 0.73 0.76 0.62 0.60 0.65 0.66 0.86 1.02 1.21 1.31
0.02 0.04 0.10 0.21 0.17 0.18 0.26 0.46 0.72 0.75 0.92 1.14 1.29 1.44 1.72 1.88 2.11 2.61 3.17 3.65 4.24 4.73 4.60 4.45 4.47 3.98 3.33 2.61 2.08 1.71 1.41 1.17 1.00 0.86 0.78 0.73 0.67 0.62 0.67 0.61 0.57 0.48 0.53 0.60 0.70 0.85 0.85 0.87 0.95
0.02 0.04 0.08 0.15 0.16 0.23 0.36 0.48 0.68 0.84 1.06 1.24 1.28 1.24 1.31 1.46 1.74 2.01 2.40 2.81 3.01 3.17 3.26 3.51 3.66 3.34 2.78 2.28 1.74 1.44 1.31 1.13 0.97 0.82 0.69 0.68 0.61 0.66 0.68 0.57 0.60 0.52 0.51 0.54 0.56 0.65 0.68 0.66 0.66
0.03 0.06 0.11 0.14 0.14 0.19 0.34 0.63 0.79 0.86 0.89 0.98 1.09 1.05 1.07 1.21 1.31 1.43 1.65 1.98 2.06 2.26 2.57 2.88 3.04 2.85 2.30 2.02 1.72 1.51 1.37 1.21 1.07 0.90 0.74 0.60 0.56 0.59 0.56 0.62 0.50 0.50 0.53 0.54 0.54 0.61 0.61 0.55 0.56
0.04 0.05 0.06 0.10 0.11 0.19 0.35 0.86 0.96 0.84 0.77 0.68 0.79 0.84 0.82 0.87 0.96 0.98 1.06 1.24 1.54 2.01 2.14 2.14 2.32 2.41 2.15 1.99 1.83 1.63 1.49 1.29 1.14 0.98 0.79 0.58 0.54 0.56 0.54 0.52 0.49 0.56 0.46 0.55 0.63 0.63 0.61 0.58 0.51
0.04 0.03 0.02 0.02 0.07 0.30 0.42 0.87 0.97 0.84 0.85 0.67 0.62 0.62 0.53 0.48 0.62 0.77 0.81 0.88 1.08 1.39 1.65 1.85 2.03 2.12 1.98 1.83 1.61 1.39 1.17 0.97 0.79 0.75 0.74 0.68 0.61 0.55 0.51 0.44 0.49 0.55 0.51 0.64 0.51 0.54 0.60 0.59 0.50
0.01 0.01 0.01 0.03 0.10 0.27 0.40 0.73 0.94 0.77 0.91 0.67 0.41 0.30 0.25 0.25 0.33 0.48 0.61 0.73 0.75 0.95 1.31 1.67 1.96 2.11 1.91 1.61 1.44 1.35 1.19 1.04 0.88 0.80 0.89 0.78 0.71 0.61 0.54 0.50 0.51 0.48 0.46 0.55 0.56 0.65 0.59 0.58 0.55
0.01 0.02 0.08 0.17 0.29 0.61 0.61 0.59 0.89 0.67 0.47 0.32 0.22 0.17 0.18 0.19 0.23 0.33 0.40 0.49 0.62 0.75 0.97 1.20 1.47 1.69 1.66 1.49 1.37 1.30 1.25 1.16 1.02 0.82 0.76 0.72 0.71 0.68 0.63 0.60 0.59 0.56 0.49 0.49 0.51 0.56 0.61 0.65 0.69
0.02 0.03 0.16 0.37 0.63 0.83 0.49 0.62 0.97 0.56 0.36 0.21 0.17 0.16 0.17 0.14 0.18 0.27 0.35 0.33 0.44 0.54 0.62 0.75 1.02 1.21 1.29 1.28 1.26 1.19 1.24 1.23 1.12 0.96 0.81 0.73 0.65 0.61 0.62 0.60 0.62 0.61 0.61 0.58 0.56 0.53 0.53 0.60 0.66
0.02 0.02 0.06 0.12 0.25 0.41 0.48 1.08 0.91 0.38 0.23 0.19 0.16 0.16 0.15 0.13 0.14 0.19 0.28 0.30 0.30 0.37 0.48 0.60 0.78 0.91 0.97 0.99 1.07 1.06 1.04 0.98 1.03 1.06 0.92 0.78 0.70 0.64 0.60 0.60 0.57 0.57 0.60 0.61 0.65 0.54 0.48 0.53 0.56
0.02 0.02 0.03 0.04 0.06 0.25 0.58 0.76 0.48 0.21 0.18 0.21 0.17 0.14 0.13 0.16 0.19 0.20 0.27 0.27 0.22 0.28 0.36 0.41 0.56 0.69 0.78 0.86 0.95 0.94 0.93 0.87 0.88 0.88 0.80 0.73 0.77 0.75 0.69 0.63 0.61 0.62 0.61 0.61 0.65 0.62 0.59 0.58 0.51
0.03 0.02 0.02 0.02 0.05 0.18 0.43 0.67 0.67 0.38 0.28 0.24 0.20 0.16 0.13 0.18 0.25 0.25 0.25 0.30 0.26 0.26 0.32 0.36 0.44 0.56 0.66 0.75 0.80 0.81 0.90 0.88 0.94 0.87 0.77 0.69 0.67 0.66 0.68 0.67 0.61 0.62 0.64 0.69 0.72 0.73 0.79 0.80 0.71
0.04 0.03 0.03 0.03 0.04 0.09 0.28 0.43 0.44 0.34 0.30 0.24 0.19 0.17 0.16 0.16 0.21 0.23 0.20 0.22 0.22 0.23 0.25 0.27 0.38 0.48 0.57 0.68 0.74 0.80 0.82 0.84 0.89 0.91 0.89 0.82 0.76 0.72 0.69 0.68 0.65 0.64 0.66 0.68 0.70 0.72 0.83 0.95 0.99
0.05 0.06 0.06 0.05 0.05 0.06 0.12 0.20 0.21 0.23 0.28 0.25 0.25 0.24 0.20 0.16 0.13 0.15 0.17 0.18 0.17 0.21 0.22 0.22 0.27 0.35 0.42 0.60 0.73 0.76 0.83 0.88 0.87 0.87 0.99 0.98 0.94 0.90 0.85 0.80 0.80 0.75 0.68 0.69 0.69 0.67 0.70 0.83 1.01